BAW751 LSGG-EGLL

Flight info

Callsign BAW751
Flight time N/A
Altitude 36000
Route DIPIR T37 IBABA DCT TUTAX DCT OBURO DCT OKRIX DCT CLM DCT KOPOR DCT ABNUR DCT DIMAL DCT ALESO
Aircraft A320/M-SDE3FGHIRWY/LB1

Departure

Time N/A
Airport Geneva International Airport (LSGG)

Arrival

Time 2026-05-06 16:21
Airport London Heathrow Airport (EGLL)
Time Latitude Longitude Altitude Speed Heading
2026-05-06 15:14 46.84771 5.44235 25610 ft 415 kts 318°
2026-05-06 15:14 46.86831 5.41272 25966 ft 416 kts 308°
2026-05-06 15:14 46.88514 5.37835 26319 ft 417 kts 299°
2026-05-06 15:14 46.89774 5.34016 26664 ft 417 kts 289°
2026-05-06 15:15 46.90796 5.30030 27004 ft 420 kts 291°
2026-05-06 15:15 46.92101 5.26186 27230 ft 425 kts 302°
2026-05-06 15:15 46.93857 5.22678 27503 ft 429 kts 311°
2026-05-06 15:15 46.95990 5.19610 27853 ft 431 kts 318°
2026-05-06 15:16 46.98228 5.16671 28174 ft 433 kts 318°
2026-05-06 15:16 47.00474 5.13712 28507 ft 436 kts 318°
2026-05-06 15:16 47.02730 5.10727 28818 ft 438 kts 318°
2026-05-06 15:16 47.04998 5.07712 29147 ft 440 kts 318°
2026-05-06 15:17 47.07276 5.04677 29488 ft 442 kts 319°
2026-05-06 15:17 47.09562 5.01628 29765 ft 446 kts 319°
2026-05-06 15:17 47.11862 4.98560 30121 ft 446 kts 319°
2026-05-06 15:17 47.14160 4.95492 30482 ft 446 kts 319°
2026-05-06 15:18 47.16457 4.92423 30844 ft 446 kts 319°
2026-05-06 15:18 47.18753 4.89353 31216 ft 446 kts 318°
2026-05-06 15:18 47.21047 4.86283 31596 ft 446 kts 317°
2026-05-06 15:18 47.23313 4.83245 31991 ft 446 kts 317°
2026-05-06 15:19 47.25603 4.80175 32392 ft 446 kts 317°
2026-05-06 15:19 47.27892 4.77109 32903 ft 444 kts 316°
2026-05-06 15:19 47.30202 4.74006 33459 ft 442 kts 316°
2026-05-06 15:19 47.32440 4.70989 33957 ft 441 kts 315°
2026-05-06 15:20 47.34698 4.67940 34366 ft 440 kts 315°
2026-05-06 15:20 47.36954 4.64889 34703 ft 440 kts 315°
2026-05-06 15:20 47.39212 4.61838 34977 ft 440 kts 315°
2026-05-06 15:20 47.41471 4.58785 35240 ft 440 kts 315°
2026-05-06 15:21 47.43726 4.55730 35520 ft 439 kts 315°
2026-05-06 15:21 47.45976 4.52677 35790 ft 439 kts 315°
2026-05-06 15:21 47.48229 4.49617 35883 ft 441 kts 315°
2026-05-06 15:22 47.52778 4.43417 35898 ft 447 kts 315°
2026-05-06 15:22 47.57360 4.37175 35902 ft 447 kts 315°
2026-05-06 15:23 47.61168 4.31968 35902 ft 447 kts 315°
2026-05-06 15:23 47.66177 4.24289 35904 ft 444 kts 303°
2026-05-06 15:24 47.69630 4.16704 35915 ft 443 kts 302°
2026-05-06 15:24 47.72516 4.10344 35915 ft 443 kts 302°
2026-05-06 15:25 47.75962 4.02747 35913 ft 443 kts 302°
2026-05-06 15:25 47.79401 3.95137 35917 ft 443 kts 302°
2026-05-06 15:26 47.82819 3.87576 35919 ft 443 kts 302°
2026-05-06 15:26 47.86249 3.79950 35920 ft 443 kts 302°
2026-05-06 15:27 47.89671 3.72309 35925 ft 443 kts 302°
2026-05-06 15:27 47.93092 3.64647 35928 ft 443 kts 302°
2026-05-06 15:28 47.97131 3.57710 35929 ft 446 kts 320°
2026-05-06 15:28 48.02511 3.53090 35929 ft 449 kts 336°
2026-05-06 15:29 48.08299 3.49526 35932 ft 449 kts 336°
2026-05-06 15:29 48.14073 3.45925 35926 ft 450 kts 336°
2026-05-06 15:30 48.19849 3.42322 35928 ft 449 kts 336°
2026-05-06 15:30 48.25619 3.38709 35938 ft 449 kts 336°
2026-05-06 15:31 48.31379 3.35089 35932 ft 448 kts 336°
2026-05-06 15:31 48.37131 3.31469 35932 ft 448 kts 336°
2026-05-06 15:32 48.45756 3.26044 35922 ft 448 kts 336°
2026-05-06 15:32 48.51511 3.22418 35920 ft 448 kts 336°
2026-05-06 15:33 48.57223 3.18793 35920 ft 448 kts 336°
2026-05-06 15:33 48.62974 3.15130 35918 ft 448 kts 336°
2026-05-06 15:34 48.68722 3.11461 35914 ft 448 kts 335°
2026-05-06 15:34 48.74469 3.07795 35915 ft 448 kts 336°
2026-05-06 15:35 48.80219 3.04124 35925 ft 448 kts 335°
2026-05-06 15:35 48.85881 3.00178 35921 ft 446 kts 328°
2026-05-06 15:36 48.91262 2.95473 35922 ft 446 kts 328°
2026-05-06 15:36 48.96638 2.90761 35929 ft 446 kts 329°
2026-05-06 15:37 49.02011 2.86049 35916 ft 446 kts 329°
2026-05-06 15:37 49.07353 2.81353 35926 ft 446 kts 329°
2026-05-06 15:38 49.12727 2.76629 35934 ft 446 kts 329°
2026-05-06 15:38 49.18097 2.71887 35931 ft 445 kts 328°
2026-05-06 15:39 49.23460 2.67132 35929 ft 445 kts 328°
2026-05-06 15:39 49.28816 2.62373 35943 ft 445 kts 328°
2026-05-06 15:40 49.34152 2.57610 35941 ft 444 kts 328°
2026-05-06 15:40 49.39491 2.52832 35948 ft 444 kts 328°
2026-05-06 15:41 49.44827 2.48054 35952 ft 444 kts 328°
2026-05-06 15:41 49.50169 2.43268 35951 ft 443 kts 328°
2026-05-06 15:42 49.55533 2.38564 35952 ft 444 kts 330°
2026-05-06 15:42 49.60957 2.34024 35950 ft 444 kts 330°
2026-05-06 15:43 49.66349 2.29524 35953 ft 443 kts 330°
2026-05-06 15:43 49.71761 2.24931 35954 ft 443 kts 330°
2026-05-06 15:44 49.77150 2.20319 35968 ft 442 kts 330°
2026-05-06 15:44 49.82530 2.15722 35966 ft 441 kts 329°
2026-05-06 15:45 49.87896 2.11134 35959 ft 440 kts 329°
2026-05-06 15:45 49.93248 2.06536 35958 ft 439 kts 330°
2026-05-06 15:46 49.98556 2.01958 35953 ft 439 kts 330°
2026-05-06 15:46 50.03905 1.97347 35961 ft 439 kts 330°
2026-05-06 15:47 50.09250 1.92719 35956 ft 439 kts 329°
2026-05-06 15:47 50.14580 1.88081 35955 ft 439 kts 329°
2026-05-06 15:48 50.19417 1.82409 35966 ft 435 kts 314°
2026-05-06 15:48 50.23744 1.75814 35972 ft 434 kts 314°
2026-05-06 15:49 50.28069 1.69237 35866 ft 434 kts 315°
2026-05-06 15:49 50.30245 1.65915 34949 ft 441 kts 315°
2026-05-06 15:49 50.32444 1.62539 34197 ft 444 kts 314°
2026-05-06 15:50 50.34644 1.59158 33550 ft 442 kts 315°
2026-05-06 15:50 50.36831 1.55800 32976 ft 438 kts 314°
2026-05-06 15:50 50.38996 1.52477 32462 ft 434 kts 314°
2026-05-06 15:50 50.41139 1.49181 31935 ft 430 kts 315°
2026-05-06 15:51 50.43237 1.45946 31430 ft 426 kts 314°
2026-05-06 15:51 50.45343 1.42692 30885 ft 424 kts 314°
2026-05-06 15:51 50.47433 1.39460 30391 ft 420 kts 314°
2026-05-06 15:51 50.49503 1.36251 29847 ft 417 kts 314°
2026-05-06 15:52 50.51524 1.32995 29248 ft 414 kts 312°
2026-05-06 15:52 50.53484 1.29698 28692 ft 411 kts 311°
2026-05-06 15:52 50.55399 1.26392 28163 ft 407 kts 310°
2026-05-06 15:52 50.57291 1.23103 27649 ft 404 kts 310°
2026-05-06 15:53 50.59192 1.19876 27164 ft 400 kts 312°
2026-05-06 15:53 50.61133 1.16740 26682 ft 397 kts 313°
2026-05-06 15:53 50.63090 1.13676 26201 ft 395 kts 314°
2026-05-06 15:53 50.65042 1.10653 25800 ft 391 kts 314°
2026-05-06 15:54 50.66976 1.07654 25363 ft 389 kts 313°
2026-05-06 15:54 50.68892 1.04661 24931 ft 387 kts 313°
2026-05-06 15:54 50.70766 1.01706 24531 ft 384 kts 313°
2026-05-06 15:54 50.72645 0.98719 24092 ft 383 kts 313°
2026-05-06 15:55 50.74507 0.95750 23711 ft 380 kts 313°
2026-05-06 15:55 50.76366 0.92778 23334 ft 377 kts 313°
2026-05-06 15:55 50.78199 0.89851 22913 ft 374 kts 313°
2026-05-06 15:55 50.80026 0.86939 22454 ft 371 kts 313°
2026-05-06 15:56 50.81836 0.84048 22006 ft 369 kts 313°
2026-05-06 15:56 50.83633 0.81172 21563 ft 366 kts 313°
2026-05-06 15:56 50.85419 0.78312 21097 ft 364 kts 313°
2026-05-06 15:56 50.87190 0.75478 20688 ft 360 kts 313°
2026-05-06 15:57 50.88922 0.72704 20557 ft 348 kts 313°
2026-05-06 15:57 50.90596 0.70020 20326 ft 338 kts 313°
2026-05-06 15:57 50.92257 0.67343 19250 ft 344 kts 313°
2026-05-06 15:57 50.93923 0.64650 18699 ft 335 kts 313°
2026-05-06 15:58 50.95520 0.62072 18334 ft 321 kts 313°
2026-05-06 15:58 50.97056 0.59594 17918 ft 309 kts 313°
2026-05-06 15:58 50.98558 0.57168 17393 ft 311 kts 313°
2026-05-06 15:58 51.00070 0.54723 16894 ft 315 kts 314°
2026-05-06 15:59 51.01602 0.52245 16382 ft 313 kts 313°
2026-05-06 15:59 51.03110 0.49798 15881 ft 309 kts 314°
2026-05-06 15:59 51.04625 0.47339 15376 ft 313 kts 314°
2026-05-06 15:59 51.06155 0.44857 14869 ft 315 kts 314°
2026-05-06 16:00 51.07702 0.42376 14358 ft 317 kts 315°
2026-05-06 16:00 51.09292 0.39918 13833 ft 320 kts 316°
2026-05-06 16:00 51.10908 0.37475 13313 ft 320 kts 316°
2026-05-06 16:00 51.12524 0.35047 12802 ft 320 kts 316°
2026-05-06 16:01 51.14118 0.32641 12591 ft 310 kts 316°
2026-05-06 16:01 51.15653 0.30308 12456 ft 300 kts 316°
2026-05-06 16:01 51.17142 0.28038 12235 ft 293 kts 316°
2026-05-06 16:01 51.18598 0.25808 12031 ft 287 kts 316°
2026-05-06 16:02 51.20034 0.23607 12022 ft 286 kts 316°
2026-05-06 16:02 51.21466 0.21413 12020 ft 286 kts 316°
2026-05-06 16:02 51.22899 0.19212 12017 ft 286 kts 316°
2026-05-06 16:02 51.24328 0.17012 12014 ft 285 kts 316°
2026-05-06 16:03 51.25754 0.14813 12010 ft 284 kts 316°
2026-05-06 16:03 51.27169 0.12575 11988 ft 289 kts 315°
2026-05-06 16:03 51.28565 0.10225 11603 ft 291 kts 308°
2026-05-06 16:03 51.29436 0.07378 11226 ft 291 kts 283°
2026-05-06 16:04 51.29605 0.04150 10851 ft 293 kts 273°
2026-05-06 16:04 51.29599 0.00901 10477 ft 292 kts 271°
2026-05-06 16:04 51.29572 -0.02348 10107 ft 292 kts 271°
2026-05-06 16:04 51.29548 -0.05585 9730 ft 291 kts 272°
2026-05-06 16:05 51.29519 -0.08818 9329 ft 291 kts 271°
2026-05-06 16:05 51.29496 -0.12044 8931 ft 290 kts 271°
2026-05-06 16:05 51.29469 -0.15258 8532 ft 286 kts 271°
2026-05-06 16:05 51.29436 -0.18381 8144 ft 276 kts 271°
2026-05-06 16:06 51.29403 -0.21417 7742 ft 271 kts 271°
2026-05-06 16:06 51.29364 -0.24392 7367 ft 266 kts 271°
2026-05-06 16:06 51.29320 -0.27317 7043 ft 260 kts 271°
2026-05-06 16:06 51.29272 -0.30171 7003 ft 257 kts 271°
2026-05-06 16:07 51.29230 -0.32994 7004 ft 257 kts 271°
2026-05-06 16:07 51.29185 -0.35852 7005 ft 257 kts 271°
2026-05-06 16:07 51.29213 -0.38704 7000 ft 256 kts 278°
2026-05-06 16:07 51.29453 -0.41534 7004 ft 256 kts 281°
2026-05-06 16:08 51.29724 -0.44339 7002 ft 255 kts 281°
2026-05-06 16:08 51.29997 -0.47149 7004 ft 255 kts 281°
2026-05-06 16:08 51.30265 -0.49950 7001 ft 255 kts 281°
2026-05-06 16:08 51.30537 -0.52758 7003 ft 255 kts 281°
2026-05-06 16:09 51.30811 -0.55562 7004 ft 255 kts 281°
2026-05-06 16:09 51.31080 -0.58362 7005 ft 255 kts 281°
2026-05-06 16:09 51.31344 -0.61100 7006 ft 255 kts 281°
2026-05-06 16:09 51.31615 -0.63904 7008 ft 255 kts 281°
2026-05-06 16:10 51.31885 -0.66708 7011 ft 255 kts 281°
2026-05-06 16:10 51.32036 -0.68284 7008 ft 255 kts 281°
2026-05-06 16:10 51.32310 -0.71091 7009 ft 256 kts 281°
2026-05-06 16:10 51.32673 -0.74809 7010 ft 255 kts 281°
2026-05-06 16:11 51.32714 -0.77647 6995 ft 259 kts 261°
2026-05-06 16:11 51.31945 -0.80273 6683 ft 266 kts 232°
2026-05-06 16:11 51.30459 -0.82016 6394 ft 269 kts 204°
2026-05-06 16:11 51.28712 -0.83074 6080 ft 267 kts 211°
2026-05-06 16:12 51.27747 -0.84239 5948 ft 260 kts 231°
2026-05-06 16:12 51.26899 -0.86723 5764 ft 255 kts 261°
2026-05-06 16:12 51.26939 -0.89481 5578 ft 248 kts 290°
2026-05-06 16:12 51.27725 -0.91599 5411 ft 244 kts 318°
2026-05-06 16:13 51.29178 -0.92904 5230 ft 242 kts 348°
2026-05-06 16:13 51.30847 -0.93114 5080 ft 239 kts 360°
2026-05-06 16:13 51.32474 -0.93090 4994 ft 228 kts
2026-05-06 16:13 51.34015 -0.93046 4986 ft 214 kts
2026-05-06 16:14 51.35444 -0.93001 5009 ft 197 kts
2026-05-06 16:14 51.36766 -0.92959 5003 ft 186 kts
2026-05-06 16:14 51.38047 -0.92913 5000 ft 184 kts
2026-05-06 16:14 51.39345 -0.92872 4760 ft 189 kts
2026-05-06 16:15 51.40669 -0.92835 4442 ft 191 kts
2026-05-06 16:15 51.41928 -0.92279 4113 ft 190 kts 34°
2026-05-06 16:15 51.42876 -0.90863 4003 ft 183 kts 44°
2026-05-06 16:15 51.43729 -0.89353 3876 ft 185 kts 48°
2026-05-06 16:16 51.44409 -0.87606 3582 ft 185 kts 59°
2026-05-06 16:16 51.44984 -0.85790 3277 ft 184 kts 60°
2026-05-06 16:16 51.45538 -0.83952 3031 ft 181 kts 61°
2026-05-06 16:16 51.46087 -0.82145 3002 ft 181 kts 61°
2026-05-06 16:17 51.46639 -0.80332 3004 ft 181 kts 61°
2026-05-06 16:17 51.47185 -0.78516 3005 ft 181 kts 62°
2026-05-06 16:17 51.47488 -0.76557 3008 ft 183 kts 79°
2026-05-06 16:17 51.47581 -0.74520 3007 ft 184 kts 84°
2026-05-06 16:18 51.47617 -0.72455 2983 ft 185 kts 84°
2026-05-06 16:18 51.47636 -0.70395 2819 ft 185 kts 85°
2026-05-06 16:18 51.47649 -0.68336 2583 ft 184 kts 85°
2026-05-06 16:18 51.47661 -0.66290 2344 ft 184 kts 85°
2026-05-06 16:19 51.47673 -0.64251 2089 ft 182 kts 86°
2026-05-06 16:19 51.47684 -0.62217 1843 ft 182 kts 87°
2026-05-06 16:19 51.47694 -0.60185 1588 ft 181 kts 85°
2026-05-06 16:19 51.47704 -0.58180 1326 ft 179 kts 87°
2026-05-06 16:20 51.47714 -0.56188 1097 ft 179 kts 86°
2026-05-06 16:20 51.47728 -0.54238 899 ft 171 kts 85°
2026-05-06 16:20 51.47754 -0.52392 754 ft 160 kts 85°
2026-05-06 16:20 51.47736 -0.50614 437 ft 156 kts 87°
2026-05-06 16:21 51.47746 -0.48905 172 ft 152 kts 85°
2026-05-06 16:21 51.47757 -0.47279 89 ft 127 kts 89°
2026-05-06 16:21 51.47759 -0.46166 89 ft 60 kts 90°
2026-05-06 16:21 51.47761 -0.45706 84 ft 33 kts 89°
2026-05-06 16:22 51.47730 -0.45486 86 ft 19 kts 140°
2026-05-06 16:22 51.47656 -0.45467 86 ft 0 kts 181°
2026-05-06 16:23 51.47653 -0.45467 86 ft 2 kts 181°
2026-05-06 16:23 51.47634 -0.45468 86 ft 4 kts 181°
2026-05-06 16:23 51.47604 -0.45491 89 ft 6 kts 227°
2026-05-06 16:23 51.47596 -0.45564 89 ft 8 kts 270°
2026-05-06 16:24 51.47596 -0.45665 88 ft 10 kts 269°
2026-05-06 16:24 51.47594 -0.45792 87 ft 13 kts 269°
2026-05-06 16:24 51.47595 -0.45947 88 ft 15 kts 270°
2026-05-06 16:24 51.47595 -0.46130 88 ft 18 kts 270°
2026-05-06 16:25 51.47594 -0.46342 90 ft 20 kts 268°
2026-05-06 16:25 51.47593 -0.46444 86 ft 15 kts 269°
2026-05-06 16:26 51.47593 -0.46491 86 ft 11 kts 269°
2026-05-06 16:26 51.47592 -0.46572 86 ft 9 kts 269°
2026-05-06 16:26 51.47591 -0.46688 86 ft 12 kts 269°
2026-05-06 16:26 51.47587 -0.46831 86 ft 14 kts 263°
2026-05-06 16:27 51.47583 -0.47001 86 ft 16 kts 270°
2026-05-06 16:27 51.47582 -0.47197 88 ft 19 kts 270°
2026-05-06 16:27 51.47582 -0.47425 88 ft 22 kts 270°
2026-05-06 16:27 51.47581 -0.47683 90 ft 24 kts 270°
2026-05-06 16:28 51.47580 -0.47959 90 ft 24 kts 270°
2026-05-06 16:28 51.47580 -0.48223 89 ft 23 kts 270°
2026-05-06 16:28 51.47578 -0.48399 88 ft 11 kts 269°
2026-05-06 16:28 51.47544 -0.48477 87 ft 8 kts 194°
2026-05-06 16:29 51.47497 -0.48476 86 ft 7 kts 179°
2026-05-06 16:29 51.47460 -0.48475 86 ft 2 kts 179°
2026-05-06 16:29 51.47454 -0.48475 86 ft 1 kts 179°
2026-05-06 16:29 51.47437 -0.48475 86 ft 4 kts 179°
2026-05-06 16:30 51.47403 -0.48474 86 ft 6 kts 179°
2026-05-06 16:30 51.47370 -0.48474 86 ft 8 kts 180°
2026-05-06 16:30 51.47291 -0.48473 86 ft 7 kts 180°
2026-05-06 16:30 51.47271 -0.48524 89 ft 4 kts 270°
2026-05-06 16:31 51.47271 -0.48561 88 ft 4 kts 269°
2026-05-06 16:31 51.47271 -0.48579 87 ft 1 kts 269°
2026-05-06 16:31 51.47271 -0.48585 89 ft 0 kts 269°